Simultaneous Nadir Overpasses (SNOs) Predictions

Prediction of SNOs between AQUA and METOP-A Satellite Orbit:

Table of predicted SNOs for the next 14.0 days since TLE Epoch: 10/3/2015
Index Date (AQUA) Time (AQUA) Lat,Lon (AQUA) SZA (AQUA ) Date (METOP-A) Time (METOP-A) Lat,Lon (METOP-A) SZA (METOP-A ) Distance(km) Time Diff (sec)
1 10/05/2015 01:17:57 73.95, 154.48 78.43 10/05/2015 01:17:25 73.96, 154.51 78.44 1.25 32
2 10/05/2015 02:07:24 -74.03, -38.05 101.48 10/05/2015 02:08:05 -74.03, -37.98 101.48 2.21 41
3 10/07/2015 20:52:12 73.97,-139.13 79.53 10/07/2015 20:51:45 73.97,-139.07 79.53 1.82 27
4 10/07/2015 21:41:39 -74.05, 28.35 100.38 10/07/2015 21:42:25 -74.04, 28.45 100.39 2.98 46
5 10/10/2015 15:36:45 -73.31, 121.10 100.10 10/10/2015 15:35:39 -73.23, 118.30 100.13 90.16 66
6 10/10/2015 16:26:25 73.96, -72.67 80.59 10/10/2015 16:26:04 73.97, -72.66 80.60 0.62 21
7 10/10/2015 17:15:52 -74.04, 94.81 99.33 10/10/2015 17:16:44 -74.05, 94.86 99.32 2.12 52
8 10/13/2015 11:11:03 -73.53,-172.93 98.81 10/13/2015 11:09:54 -73.48,-174.74 98.84 57.52 69
9 10/13/2015 12:00:39 73.98, -6.26 81.66 10/13/2015 12:00:24 73.97, -6.26 81.65 1.57 15
10 10/13/2015 12:50:06 -74.05, 161.22 98.26 10/13/2015 12:51:04 -74.05, 161.27 98.26 1.63 58
11 10/16/2015 06:45:21 -73.78,-107.02 97.51 10/16/2015 06:44:09 -73.72,-107.77 97.56 24.25 72
12 10/16/2015 07:34:52 73.97, 60.20 82.70 10/16/2015 07:34:44 73.96, 60.13 82.69 2.63 8
13 10/16/2015 08:24:19 -74.04,-132.31 97.22 10/16/2015 08:25:24 -74.04,-132.33 97.22 0.78 65




NCC Satellite Simultaneous Nadir Overpasses (SNOs) Prediction Service
